| time (UTC) | temp F | wind direction | speed MPH | gust MPH | rain 1hr in | rain 24hr in | rain mn in | humidity % | barometer mb |
| 20260508121000 | 61 | 158 | 0.0 | 0.0 | 0.00 | 0.02 | 0.02 | 90 | 1015.7 |
| 20260508120459 | 61 | 143 | 0.0 | 0.0 | 0.00 | 0.02 | 0.02 | 90 | 1015.3 |
| 20260508120003 | 61 | 143 | 0.0 | 0.0 | 0.00 | 0.02 | 0.02 | 90 | 1015.0 |
| 20260508115459 | 61 | 143 | 0.0 | 0.0 | 0.00 | 0.02 | 0.02 | 90 | 1015.0 |
| 20260508114958 | 61 | 143 | 0.0 | 0.0 | 0.00 | 0.02 | 0.02 | 90 | 1015.0 |
| 20260508114501 | 61 | 142 | 0.0 | 0.0 | 0.00 | 0.02 | 0.02 | 89 | 1015.2 |
| 20260508113959 | 61 | 142 | 0.0 | 0.0 | 0.00 | 0.02 | 0.02 | 89 | 1015.2 |
| 20260508113458 | 61 | 143 | 0.0 | 0.0 | 0.00 | 0.02 | 0.02 | 89 | 1014.9 |
| 20260508113002 | 61 | 143 | 0.0 | 0.0 | 0.00 | 0.02 | 0.02 | 89 | 1014.7 |
| 20260508112458 | 61 | 142 | 0.0 | 0.0 | 0.00 | 0.02 | 0.02 | 89 | 1014.7 |
| 20260508111958 | 61 | 143 | 0.0 | 0.0 | 0.00 | 0.02 | 0.02 | 89 | 1014.8 |
| 20260508110958 | 61 | 143 | 0.0 | 1.0 | 0.01 | 0.02 | 0.02 | 89 | 1014.6 |
| 20260508110459 | 61 | 141 | 0.0 | 0.0 | 0.01 | 0.02 | 0.02 | 88 | 1014.5 |
| 20260508105458 | 61 | 133 | 0.0 | 3.0 | 0.01 | 0.02 | 0.02 | 88 | 1014.3 |
| 20260508104958 | 61 | 139 | 0.0 | 3.0 | 0.01 | 0.02 | 0.02 | 88 | 1014.3 |
| 20260508103002 | 61 | 211 | 1.0 | 3.0 | 0.01 | 0.02 | 0.02 | 86 | 1015.0 |
| 20260508102459 | 62 | 165 | 0.0 | 1.0 | 0.01 | 0.02 | 0.02 | 87 | 1014.7 |
| 20260508101502 | 62 | 166 | 0.0 | 0.0 | 0.00 | 0.01 | 0.01 | 85 | 1014.5 |
| 20260508100458 | 62 | 166 | 0.0 | 0.0 | 0.00 | 0.01 | 0.01 | 86 | 1014.6 |
| 20260508094959 | 62 | 165 | 0.0 | 0.0 | 0.00 | 0.01 | 0.01 | 85 | 1014.2 |
| 20260508094501 | 62 | 166 | 0.0 | 0.0 | 0.01 | 0.01 | 0.01 | 85 | 1014.0 |
| 20260508093458 | 62 | 165 | 0.0 | 0.0 | 0.01 | 0.01 | 0.01 | 85 | 1013.9 |
| 20260508093002 | 62 | 165 | 0.0 | 0.0 | 0.01 | 0.01 | 0.01 | 85 | 1013.9 |
| 20260508091958 | 62 | 166 | 0.0 | 0.0 | 0.01 | 0.01 | 0.01 | 85 | 1013.9 |
| 20260508091501 | 61 | 166 | 0.0 | 0.0 | 0.01 | 0.01 | 0.01 | 85 | 1014.0 |
| 20260508090958 | 61 | 166 | 0.0 | 0.0 | 0.01 | 0.01 | 0.01 | 86 | 1014.1 |
| 20260508090458 | 61 | 166 | 0.0 | 0.0 | 0.01 | 0.01 | 0.01 | 85 | 1014.2 |
| 20260508090004 | 61 | 166 | 0.0 | 0.0 | 0.01 | 0.01 | 0.01 | 86 | 1014.3 |
| 20260508085458 | 61 | 165 | 0.0 | 0.0 | 0.01 | 0.01 | 0.01 | 85 | 1013.9 |
| 20260508084958 | 61 | 165 | 0.0 | 1.0 | 0.01 | 0.01 | 0.01 | 85 | 1014.1 |
| 20260508084502 | 62 | 166 | 0.0 | 1.0 | 0.00 | 0.00 | 0.00 | 85 | 1014.3 |
| 20260508083958 | 62 | 166 | 0.0 | 1.0 | 0.00 | 0.00 | 0.00 | 85 | 1014.2 |
| 20260508083458 | 62 | 165 | 0.0 | 2.0 | 0.00 | 0.00 | 0.00 | 85 | 1014.6 |
| 20260508083002 | 62 | 166 | 0.0 | 6.0 | 0.00 | 0.00 | 0.00 | 84 | 1014.6 |
| 20260508081958 | 62 | 145 | 0.0 | 2.0 | 0.00 | 0.00 | 0.00 | 84 | 1014.1 |
| 20260508081502 | 61 | 198 | 0.0 | 0.0 | 0.00 | 0.00 | 0.00 | 85 | 1014.9 |
| 20260508080958 | 61 | 198 | 0.0 | 0.0 | 0.00 | 0.00 | 0.00 | 85 | 1015.6 |
| 20260508080458 | 62 | 197 | 0.0 | 0.0 | 0.00 | 0.00 | 0.00 | 85 | 1015.2 |
| 20260508080004 | 62 | 197 | 0.0 | 1.0 | 0.00 | 0.00 | 0.00 | 84 | 1014.8 |
| 20260508075458 | 62 | 196 | 0.0 | 1.0 | 0.00 | 0.00 | 0.00 | 83 | 1014.6 |
| 20260508074501 | 62 | 196 | 0.0 | 0.0 | 0.00 | 0.00 | 0.00 | 81 | 1015.2 |
| 20260508073958 | 63 | 195 | 0.0 | 0.0 | 0.00 | 0.00 | 0.00 | 79 | 1015.4 |
| 20260508073458 | 63 | 195 | 0.0 | 0.0 | 0.00 | 0.00 | 0.00 | 78 | 1015.3 |
| 20260508072458 | 62 | 196 | 0.0 | 0.0 | 0.00 | 0.00 | 0.00 | 78 | 1016.0 |
| 20260508071958 | 61 | 196 | 0.0 | 0.0 | 0.00 | 0.00 | 0.00 | 80 | 1016.3 |
| 20260508071501 | 61 | 196 | 0.0 | 0.0 | 0.00 | 0.00 | 0.00 | 79 | 1016.1 |
| 20260508070958 | 61 | 196 | 0.0 | 0.0 | 0.00 | 0.00 | 0.00 | 78 | 1015.5 |
| 20260508070458 | 62 | 195 | 0.0 | 0.0 | 0.00 | 0.00 | 0.00 | 78 | 1015.6 |
| 20260508065459 | 62 | 196 | 0.0 | 0.0 | 0.00 | 0.00 | 0.00 | 77 | 1015.3 |
| 20260508064503 | 62 | 196 | 0.0 | 0.0 | 0.00 | 0.00 | 0.00 | 77 | 1015.6 |
| 20260508063958 | 62 | 196 | 0.0 | 0.0 | 0.00 | 0.00 | 0.00 | 77 | 1015.7 |
| 20260508063001 | 62 | 196 | 0.0 | 0.0 | 0.00 | 0.00 | 0.00 | 76 | 1015.7 |
| 20260508062458 | 62 | 196 | 0.0 | 0.0 | 0.00 | 0.00 | 0.00 | 77 | 1016.0 |
| 20260508061958 | 61 | 196 | 0.0 | 0.0 | 0.00 | 0.00 | 0.00 | 77 | 1016.1 |
| 20260508061501 | 61 | 196 | 0.0 | 0.0 | 0.00 | 0.00 | 0.00 | 78 | 1016.3 |
| 20260508060958 | 61 | 195 | 0.0 | 0.0 | 0.00 | 0.00 | 0.00 | 78 | 1016.2 |
| 20260508060008 | 62 | 196 | 0.0 | 0.0 | 0.00 | 0.00 | 0.00 | 76 | 1016.2 |
| 20260508054506 | 62 | 196 | 0.0 | 0.0 | 0.00 | 0.00 | 0.00 | 74 | 1015.9 |
| 20260508054003 | 62 | 195 | 0.0 | 0.0 | 0.00 | 0.00 | 0.00 | 75 | 1016.0 |
| 20260508053502 | 62 | 196 | 0.0 | 0.0 | 0.00 | 0.00 | 0.00 | 74 | 1015.9 |
| 20260508053007 | 63 | 195 | 0.0 | 0.0 | 0.00 | 0.00 | 0.00 | 74 | 1015.8 |
| 20260508052503 | 63 | 196 | 0.0 | 0.0 | 0.00 | 0.00 | 0.00 | 73 | 1015.8 |
| 20260508052003 | 63 | 196 | 0.0 | 0.0 | 0.00 | 0.00 | 0.00 | 74 | 1015.9 |
| 20260508051507 | 63 | 196 | 0.0 | 0.0 | 0.00 | 0.00 | 0.00 | 72 | 1015.9 |
| 20260508051003 | 63 | 196 | 0.0 | 0.0 | 0.00 | 0.00 | 0.00 | 73 | 1016.0 |
| 20260508050504 | 63 | 196 | 0.0 | 0.0 | 0.00 | 0.00 | 0.00 | 74 | 1016.1 |
| 20260508050014 | 63 | 196 | 0.0 | 0.0 | 0.00 | 0.00 | 0.00 | 75 | 1016.0 |
| 20260508045503 | 63 | 196 | 0.0 | 0.0 | 0.00 | 0.00 | 0.00 | 75 | 1016.2 |
| 20260508045003 | 63 | 195 | 0.0 | 0.0 | 0.00 | 0.00 | 0.00 | 74 | 1016.1 |
| 20260508044507 | 63 | 195 | 0.0 | 0.0 | 0.00 | 0.00 | 0.00 | 73 | 1016.1 |
| 20260508044003 | 63 | 196 | 0.0 | 0.0 | 0.00 | 0.00 | 0.00 | 73 | 1016.1 |
| 20260508043006 | 63 | 196 | 0.0 | 0.0 | 0.00 | 0.00 | 0.00 | 71 | 1016.0 |
| 20260508042503 | 63 | 195 | 0.0 | 0.0 | 0.00 | 0.00 | 0.00 | 71 | 1016.0 |
| 20260508042003 | 63 | 196 | 0.0 | 0.0 | 0.00 | 0.00 | 0.00 | 70 | 1015.9 |
| 20260508041507 | 63 | 196 | 0.0 | 0.0 | 0.00 | 0.00 | 0.00 | 70 | 1016.0 |
| 20260508041003 | 63 | 196 | 0.0 | 0.0 | 0.00 | 0.00 | 0.00 | 69 | 1015.9 |
| 20260508040503 | 63 | 196 | 0.0 | 0.0 | 0.00 | 0.00 | 0.00 | 71 | 1016.0 |
| 20260508040010 | 63 | 196 | 0.0 | 0.0 | 0.00 | 0.00 | 0.00 | 70 | 1015.9 |
| 20260508035504 | 63 | 196 | 0.0 | 0.0 | 0.00 | 0.00 | 0.00 | 69 | 1015.9 |
| 20260508035003 | 63 | 195 | 0.0 | 0.0 | 0.00 | 0.00 | 0.00 | 69 | 1015.9 |
| 20260508034507 | 63 | 196 | 0.0 | 0.0 | 0.00 | 0.00 | 0.00 | 70 | 1015.8 |
| 20260508034004 | 63 | 196 | 0.0 | 0.0 | 0.00 | 0.00 | 0.00 | 69 | 1015.9 |
| 20260508033503 | 63 | 196 | 0.0 | 0.0 | 0.00 | 0.00 | 0.00 | 69 | 1015.9 |
| 20260508033007 | 63 | 195 | 0.0 | 0.0 | 0.00 | 0.00 | 0.00 | 69 | 1015.8 |
| 20260508032503 | 63 | 196 | 0.0 | 0.0 | 0.00 | 0.00 | 0.00 | 69 | 1015.8 |
| 20260508032002 | 63 | 196 | 0.0 | 0.0 | 0.00 | 0.00 | 0.00 | 69 | 1015.7 |
| 20260508030503 | 65 | 195 | 0.0 | 0.0 | 0.00 | 0.00 | 0.00 | 66 | 1015.7 |
| 20260508025503 | 65 | 195 | 0.0 | 0.0 | 0.00 | 0.00 | 0.00 | 64 | 1015.6 |
| 20260508025003 | 65 | 196 | 0.0 | 0.0 | 0.00 | 0.00 | 0.00 | 64 | 1015.5 |
| 20260508024506 | 66 | 196 | 0.0 | 0.0 | 0.00 | 0.00 | 0.00 | 63 | 1015.5 |
| 20260508024003 | 66 | 196 | 0.0 | 0.0 | 0.00 | 0.00 | 0.00 | 63 | 1015.3 |
| 20260508023503 | 66 | 195 | 0.0 | 0.0 | 0.00 | 0.00 | 0.00 | 63 | 1015.3 |
| 20260508023008 | 66 | 195 | 0.0 | 0.0 | 0.00 | 0.00 | 0.00 | 63 | 1015.3 |
| 20260508022503 | 66 | 196 | 0.0 | 0.0 | 0.00 | 0.00 | 0.00 | 62 | 1015.3 |
| 20260508022003 | 66 | 196 | 0.0 | 0.0 | 0.00 | 0.00 | 0.00 | 62 | 1015.3 |
| 20260508021506 | 66 | 195 | 0.0 | 0.0 | 0.00 | 0.00 | 0.00 | 62 | 1015.1 |
| 20260508021002 | 67 | 196 | 0.0 | 0.0 | 0.00 | 0.00 | 0.00 | 61 | 1015.2 |
| 20260508020502 | 67 | 196 | 0.0 | 0.0 | 0.00 | 0.00 | 0.00 | 61 | 1015.0 |
| 20260508020008 | 67 | 196 | 0.0 | 1.0 | 0.00 | 0.00 | 0.00 | 60 | 1015.1 |
| 20260508015502 | 67 | 195 | 0.0 | 1.0 | 0.00 | 0.00 | 0.00 | 60 | 1015.1 |
| 20260508014506 | 68 | 212 | 0.0 | 1.0 | 0.00 | 0.00 | 0.00 | 60 | 1014.8 |
| 20260508014003 | 68 | 211 | 0.0 | 3.0 | 0.00 | 0.00 | 0.00 | 59 | 1014.9 |
| 20260508013504 | 68 | 212 | 0.0 | 3.0 | 0.00 | 0.00 | 0.00 | 59 | 1014.9 |
| 20260508013007 | 68 | 194 | 0.0 | 5.0 | 0.00 | 0.00 | 0.00 | 59 | 1014.9 |
| 20260508012504 | 69 | 194 | 1.0 | 5.0 | 0.00 | 0.00 | 0.00 | 58 | 1014.9 |
| 20260508012004 | 69 | 219 | 0.0 | 7.0 | 0.00 | 0.00 | 0.00 | 58 | 1015.0 |
| 20260508011506 | 69 | 186 | 2.0 | 7.0 | 0.00 | 0.00 | 0.00 | 58 | 1014.8 |
| 20260508011002 | 69 | 192 | 0.0 | 3.0 | 0.00 | 0.00 | 0.00 | 58 | 1015.0 |
| 20260508010503 | 69 | 174 | 0.0 | 5.0 | 0.00 | 0.00 | 0.00 | 57 | 1015.0 |
| 20260508005501 | 69 | 211 | 1.0 | 4.0 | 0.00 | 0.00 | 0.00 | 57 | 1014.8 |
| 20260508005001 | 70 | 163 | 1.0 | 4.0 | 0.00 | 0.00 | 0.00 | 57 | 1014.7 |
| 20260508004505 | 70 | 186 | 0.0 | 4.0 | 0.00 | 0.00 | 0.00 | 56 | 1014.6 |
| 20260508003501 | 71 | 151 | 1.0 | 4.0 | 0.00 | 0.00 | 0.00 | 55 | 1014.7 |
| 20260508002002 | 72 | 26 | 0.0 | 0.0 | 0.00 | 0.00 | 0.00 | 54 | 1014.8 |
| 20260508001002 | 73 | 26 | 0.0 | 0.0 | 0.00 | 0.00 | 0.00 | 51 | 1014.9 |
| 20260508000502 | 74 | 26 | 0.0 | 0.0 | 0.00 | 0.00 | 0.00 | 50 | 1015.1 |
| 20260508000007 | 74 | 26 | 0.0 | 0.0 | 0.00 | 0.00 | 0.00 | 52 | 1015.2 |
| 20260507235502 | 74 | 27 | 0.0 | 0.0 | 0.00 | 0.00 | 0.00 | 49 | 1015.1 |
| 20260507235002 | 73 | 26 | 0.0 | 0.0 | 0.00 | 0.00 | 0.00 | 53 | 1015.1 |
| 20260507234505 | 73 | 26 | 0.0 | 0.0 | 0.00 | 0.00 | 0.00 | 49 | 1015.0 |
| 20260507234002 | 73 | 27 | 0.0 | 0.0 | 0.00 | 0.00 | 0.00 | 51 | 1014.9 |
| 20260507233502 | 73 | 27 | 0.0 | 0.0 | 0.00 | 0.00 | 0.00 | 51 | 1014.9 |
| 20260507232501 | 73 | 27 | 0.0 | 0.0 | 0.00 | 0.00 | 0.00 | 49 | 1015.0 |
| 20260507232002 | 73 | 27 | 0.0 | 0.0 | 0.00 | 0.00 | 0.00 | 48 | 1014.9 |
| 20260507231505 | 73 | 27 | 0.0 | 0.0 | 0.00 | 0.00 | 0.00 | 49 | 1015.0 |
| 20260507231002 | 73 | 26 | 0.0 | 0.0 | 0.00 | 0.00 | 0.00 | 51 | 1015.2 |
| 20260507230503 | 73 | 26 | 0.0 | 0.0 | 0.00 | 0.00 | 0.00 | 51 | 1015.3 |
| 20260507225001 | 73 | 27 | 0.0 | 0.0 | 0.00 | 0.00 | 0.00 | 50 | 1015.3 |
| 20260507224505 | 73 | 27 | 0.0 | 0.0 | 0.00 | 0.00 | 0.00 | 53 | 1015.4 |
| 20260507223502 | 73 | 26 | 0.0 | 0.0 | 0.00 | 0.00 | 0.00 | 50 | 1015.5 |
| 20260507223006 | 73 | 26 | 0.0 | 0.0 | 0.00 | 0.00 | 0.00 | 50 | 1015.6 |
| 20260507222501 | 72 | 27 | 0.0 | 0.0 | 0.00 | 0.00 | 0.00 | 50 | 1015.6 |
| 20260507222002 | 73 | 27 | 0.0 | 0.0 | 0.00 | 0.00 | 0.00 | 49 | 1015.6 |
| 20260507221505 | 73 | 26 | 0.0 | 0.0 | 0.00 | 0.00 | 0.00 | 47 | 1015.7 |
| 20260507220503 | 73 | 27 | 0.0 | 3.0 | 0.00 | 0.00 | 0.00 | 50 | 1015.6 |
| 20260507220007 | 73 | 27 | 0.0 | 3.0 | 0.00 | 0.00 | 0.00 | 48 | 1015.5 |
| 20260507215501 | 73 | 13 | 0.0 | 0.0 | 0.00 | 0.00 | 0.00 | 50 | 1015.8 |
| 20260507215001 | 73 | 13 | 0.0 | 0.0 | 0.00 | 0.00 | 0.00 | 49 | 1015.8 |
| 20260507214505 | 73 | 13 | 0.0 | 0.0 | 0.00 | 0.00 | 0.00 | 49 | 1015.8 |
| 20260507214002 | 73 | 13 | 0.0 | 0.0 | 0.00 | 0.00 | 0.00 | 46 | 1015.8 |
| 20260507213502 | 73 | 13 | 0.0 | 3.0 | 0.00 | 0.00 | 0.00 | 49 | 1015.9 |
| 20260507212502 | 74 | 60 | 0.0 | 1.0 | 0.00 | 0.00 | 0.00 | 48 | 1016.0 |
| 20260507212001 | 75 | 60 | 0.0 | 2.0 | 0.00 | 0.00 | 0.00 | 46 | 1016.0 |
| 20260507211505 | 75 | 61 | 0.0 | 2.0 | 0.00 | 0.00 | 0.00 | 45 | 1016.0 |
| 20260507210502 | 75 | 336 | 1.0 | 4.0 | 0.00 | 0.00 | 0.00 | 45 | 1016.2 |
| 20260507205502 | 75 | 341 | 1.0 | 5.0 | 0.00 | 0.00 | 0.00 | 45 | 1016.2 |
| 20260507205002 | 75 | 65 | 1.0 | 6.0 | 0.00 | 0.00 | 0.00 | 44 | 1016.2 |
| 20260507204505 | 75 | 23 | 0.0 | 6.0 | 0.00 | 0.00 | 0.00 | 46 | 1016.2 |
| 20260507204002 | 75 | 62 | 2.0 | 6.0 | 0.00 | 0.00 | 0.00 | 43 | 1016.2 |
| 20260507203501 | 75 | 28 | 1.0 | 4.0 | 0.00 | 0.00 | 0.00 | 46 | 1016.3 |
| 20260507203007 | 75 | 35 | 1.0 | 5.0 | 0.00 | 0.00 | 0.00 | 46 | 1016.4 |
| 20260507202502 | 75 | 48 | 1.0 | 5.0 | 0.00 | 0.00 | 0.00 | 45 | 1016.5 |
| 20260507202005 | 75 | 331 | 0.0 | 9.0 | 0.00 | 0.00 | 0.00 | 45 | 1016.5 |
| 20260507201513 | 75 | 342 | 1.0 | 9.0 | 0.00 | 0.00 | 0.00 | 44 | 1016.5 |
| 20260507201002 | 74 | 360 | 1.0 | 5.0 | 0.00 | 0.00 | 0.00 | 46 | 1016.7 |
| 20260507200501 | 74 | 51 | 1.0 | 8.0 | 0.00 | 0.00 | 0.00 | 44 | 1016.9 |
| 20260507200006 | 74 | 52 | 1.0 | 8.0 | 0.00 | 0.00 | 0.00 | 45 | 1016.8 |
| 20260507195500 | 74 | 47 | 1.0 | 8.0 | 0.00 | 0.00 | 0.00 | 47 | 1016.9 |
| 20260507195001 | 73 | 55 | 1.0 | 8.0 | 0.00 | 0.00 | 0.00 | 45 | 1016.9 |
| 20260507194000 | 74 | 51 | 0.0 | 9.0 | 0.00 | 0.00 | 0.00 | 45 | 1017.1 |
| 20260507193004 | 74 | 65 | 0.0 | 6.0 | 0.00 | 0.00 | 0.00 | 45 | 1017.0 |
| 20260507192000 | 73 | 51 | 1.0 | 6.0 | 0.00 | 0.00 | 0.00 | 44 | 1017.3 |
| 20260507191503 | 73 | 355 | 1.0 | 6.0 | 0.00 | 0.00 | 0.00 | 46 | 1017.5 |
| 20260507190502 | 74 | 40 | 0.0 | 5.0 | 0.00 | 0.00 | 0.00 | 44 | 1017.6 |
| 20260507190007 | 73 | 15 | 1.0 | 5.0 | 0.00 | 0.00 | 0.00 | 46 | 1017.6 |
| 20260507185500 | 73 | 52 | 1.0 | 5.0 | 0.00 | 0.00 | 0.00 | 45 | 1017.7 |
| 20260507185001 | 73 | 78 | 0.0 | 7.0 | 0.00 | 0.00 | 0.00 | 46 | 1017.6 |
| 20260507184000 | 73 | 338 | 0.0 | 7.0 | 0.00 | 0.00 | 0.00 | 47 | 1017.7 |
| 20260507183500 | 72 | 37 | 3.0 | 7.0 | 0.00 | 0.00 | 0.00 | 45 | 1017.8 |
| 20260507183004 | 72 | 74 | 1.0 | 6.0 | 0.00 | 0.00 | 0.00 | 45 | 1017.8 |
| 20260507182500 | 73 | 64 | 1.0 | 9.0 | 0.00 | 0.00 | 0.00 | 44 | 1017.8 |
| 20260507182001 | 72 | 96 | 2.0 | 9.0 | 0.00 | 0.00 | 0.00 | 48 | 1017.9 |
| 20260507181000 | 71 | 25 | 1.0 | 6.0 | 0.00 | 0.00 | 0.00 | 48 | 1018.2 |
| 20260507180501 | 71 | 55 | 1.0 | 6.0 | 0.00 | 0.00 | 0.00 | 47 | 1018.3 |
| 20260507180011 | 71 | 41 | 0.0 | 4.0 | 0.00 | 0.00 | 0.00 | 48 | 1018.4 |
| 20260507175000 | 70 | 53 | 0.0 | 6.0 | 0.00 | 0.00 | 0.00 | 49 | 1018.6 |
| 20260507174504 | 70 | 346 | 0.0 | 6.0 | 0.00 | 0.00 | 0.00 | 50 | 1018.9 |
| 20260507174000 | 70 | 60 | 1.0 | 6.0 | 0.00 | 0.00 | 0.00 | 49 | 1019.0 |
| 20260507173500 | 70 | 59 | 1.0 | 6.0 | 0.00 | 0.00 | 0.00 | 48 | 1019.2 |
| 20260507173005 | 70 | 82 | 1.0 | 4.0 | 0.00 | 0.00 | 0.00 | 49 | 1019.3 |
| 20260507172500 | 70 | 50 | 0.0 | 5.0 | 0.00 | 0.00 | 0.00 | 50 | 1019.4 |
| 20260507172000 | 69 | 360 | 0.0 | 5.0 | 0.00 | 0.00 | 0.00 | 51 | 1019.5 |
| 20260507171505 | 69 | 350 | 1.0 | 5.0 | 0.00 | 0.00 | 0.00 | 51 | 1019.8 |
| 20260507171000 | 69 | 51 | 0.0 | 5.0 | 0.00 | 0.00 | 0.00 | 54 | 1019.7 |
| 20260507170500 | 68 | 51 | 0.0 | 5.0 | 0.00 | 0.00 | 0.00 | 52 | 1019.8 |
| 20260507170006 | 68 | 46 | 0.0 | 2.0 | 0.00 | 0.00 | 0.00 | 53 | 1019.9 |
| 20260507165502 | 68 | 45 | 0.0 | 4.0 | 0.00 | 0.00 | 0.00 | 53 | 1019.9 |
| 20260507165000 | 67 | 39 | 0.0 | 4.0 | 0.00 | 0.00 | 0.00 | 55 | 1019.9 |
| 20260507164504 | 67 | 355 | 0.0 | 4.0 | 0.00 | 0.00 | 0.00 | 56 | 1020.0 |
| 20260507164000 | 67 | 51 | 1.0 | 4.0 | 0.00 | 0.00 | 0.00 | 55 | 1020.0 |
| 20260507163500 | 67 | 59 | 1.0 | 6.0 | 0.00 | 0.00 | 0.00 | 54 | 1020.0 |
| 20260507163004 | 67 | 21 | 0.0 | 5.0 | 0.00 | 0.00 | 0.00 | 58 | 1020.1 |
| 20260507162500 | 67 | 355 | 1.0 | 9.0 | 0.00 | 0.00 | 0.00 | 58 | 1020.1 |
| 20260507162001 | 66 | 106 | 2.0 | 9.0 | 0.00 | 0.00 | 0.00 | 58 | 1020.1 |
| 20260507161000 | 66 | 44 | 1.0 | 5.0 | 0.00 | 0.00 | 0.00 | 59 | 1020.2 |
| 20260507160501 | 67 | 53 | 1.0 | 5.0 | 0.00 | 0.00 | 0.00 | 58 | 1020.2 |
| 20260507160006 | 66 | 51 | 0.0 | 4.0 | 0.00 | 0.00 | 0.00 | 62 | 1020.1 |
| 20260507155000 | 65 | 31 | 0.0 | 4.0 | 0.00 | 0.03 | 0.00 | 65 | 1020.3 |
| 20260507154504 | 64 | 56 | 0.0 | 5.0 | 0.00 | 0.03 | 0.00 | 64 | 1020.3 |
| 20260507153501 | 64 | 331 | 0.0 | 1.0 | 0.00 | 0.03 | 0.00 | 66 | 1020.3 |
| 20260507152500 | 63 | 330 | 2.0 | 5.0 | 0.00 | 0.03 | 0.00 | 67 | 1020.5 |
| 20260507152001 | 63 | 5 | 1.0 | 5.0 | 0.00 | 0.03 | 0.00 | 68 | 1020.4 |
| 20260507151504 | 62 | 10 | 0.0 | 4.0 | 0.00 | 0.03 | 0.00 | 70 | 1020.6 |
| 20260507150500 | 61 | 71 | 0.0 | 3.0 | 0.00 | 0.03 | 0.00 | 71 | 1020.6 |
| 20260507150005 | 62 | 71 | 1.0 | 3.0 | 0.00 | 0.03 | 0.00 | 68 | 1020.7 |
| 20260507145000 | 63 | 349 | 0.0 | 1.0 | 0.00 | 0.03 | 0.00 | 69 | 1020.7 |
| 20260507143959 | 61 | 41 | 0.0 | 4.0 | 0.00 | 0.03 | 0.00 | 73 | 1020.8 |
| 20260507143500 | 60 | 60 | 1.0 | 4.0 | 0.00 | 0.03 | 0.00 | 74 | 1020.8 |
| 20260507143004 | 60 | 32 | 0.0 | 5.0 | 0.00 | 0.03 | 0.00 | 75 | 1020.8 |
| 20260507142500 | 60 | 30 | 0.0 | 5.0 | 0.00 | 0.03 | 0.00 | 75 | 1020.7 |
| 20260507141959 | 59 | 17 | 0.0 | 2.0 | 0.00 | 0.03 | 0.00 | 78 | 1020.9 |
| 20260507141504 | 59 | 25 | 0.0 | 3.0 | 0.00 | 0.03 | 0.00 | 77 | 1021.0 |
| 20260507140959 | 59 | 24 | 0.0 | 3.0 | 0.00 | 0.03 | 0.00 | 77 | 1021.0 |
| 20260507140501 | 59 | 25 | 0.0 | 2.0 | 0.00 | 0.03 | 0.00 | 77 | 1021.1 |
| 20260507140006 | 59 | 34 | 0.0 | 0.0 | 0.00 | 0.03 | 0.00 | 78 | 1021.2 |
| 20260507135500 | 58 | 33 | 0.0 | 0.0 | 0.00 | 0.03 | 0.00 | 79 | 1021.2 |
| 20260507134959 | 58 | 34 | 0.0 | 0.0 | 0.00 | 0.03 | 0.00 | 79 | 1021.1 |
| 20260507133959 | 57 | 33 | 0.0 | 0.0 | 0.00 | 0.03 | 0.00 | 81 | 1021.3 |
| 20260507133459 | 56 | 34 | 0.0 | 0.0 | 0.00 | 0.03 | 0.00 | 82 | 1021.3 |
| 20260507131959 | 55 | 33 | 0.0 | 0.0 | 0.00 | 0.03 | 0.00 | 83 | 1021.1 |
| 20260507131503 | 55 | 34 | 0.0 | 0.0 | 0.00 | 0.03 | 0.00 | 84 | 1021.2 |
| 20260507130459 | 54 | 34 | 0.0 | 2.0 | 0.00 | 0.03 | 0.00 | 83 | 1021.0 |
| 20260507130005 | 54 | 34 | 0.0 | 2.0 | 0.00 | 0.03 | 0.00 | 84 | 1021.0 |
| 20260507125459 | 53 | 34 | 0.0 | 0.0 | 0.00 | 0.03 | 0.00 | 86 | 1021.0 |
| 20260507125000 | 53 | 35 | 0.0 | 0.0 | 0.00 | 0.03 | 0.00 | 87 | 1020.9 |
| 20260507124503 | 53 | 34 | 0.0 | 0.0 | 0.00 | 0.03 | 0.00 | 87 | 1020.9 |
| 20260507123959 | 53 | 34 | 0.0 | 0.0 | 0.00 | 0.03 | 0.00 | 87 | 1020.9 |
| 20260507123459 | 52 | 34 | 0.0 | 0.0 | 0.00 | 0.03 | 0.00 | 87 | 1020.8 |
| 20260507123003 | 52 | 34 | 0.0 | 0.0 | 0.00 | 0.03 | 0.00 | 88 | 1020.7 |
| 20260507122459 | 52 | 34 | 0.0 | 0.0 | 0.00 | 0.03 | 0.00 | 88 | 1020.6 |
| 20260507121959 | 52 | 34 | 0.0 | 0.0 | 0.00 | 0.03 | 0.00 | 89 | 1020.5 |
| 20260507121502 | 52 | 34 | 0.0 | 0.0 | 0.00 | 0.03 | 0.00 | 89 | 1020.5 |